Weather History for Clinton, IA

Change the Weather History Date:

Tuesday, November 13, 2012

  Actual Average Record
Temperature  
Mean Temperature 30 °F -  
Max Temperature 42 °F 46 °F 75 °F (1989)
Min Temperature 19 °F 29 °F 4 °F (1986)
Degree Days  
Heating Degree Days 34    
Moisture  
Dew Point 19 °F    
Average Humidity 67    
Maximum Humidity 93    
Minimum Humidity 39    
Precipitation  
Precipitation 0.00 in - - ()
Sea Level Pressure  
Sea Level Pressure 30.46 in    
Wind  
Wind Speed 5 mph (SSW)    
Max Wind Speed 9 mph    
Max Gust Speed -    
Visibility 10 miles    
Events      
Averages and records for this station are not official NWS values.
T = Trace of Precipitation, MM = Missing Value Source: NWS Daily Summary

Daily Weather History Graph

Daily Weather History Graph

Search for Another Location

Airport:

Trip Planner

Search our weather history database for the weather conditions in past years. The results will help you decide how hot, cold, wet, or windy it might be!

Date:

Astronomy

Nov. 13, 2012 Rise Set
Actual Time 6:48 AM CST 4:41 PM CST
Civil Twilight 6:19 AM CST 5:11 PM CST
Nautical Twilight 5:45 AM CST 5:45 PM CST
Astronomical Twilight 5:12 AM CST 6:18 PM CST
Moon 6:27 AM CST (11/13) 4:34 PM CST (11/13)
Length of Visible Light 10h 52m
Length of Day
9h 52m
Waning Crescent, 0% of the Moon is Illuminated
Nov 13
Waning Crescent
Nov 13
New
Nov 20
First Quarter
Nov 28
Full
Dec 6
Last Quarter

Hourly Weather History & Observations

Time (CST) Temp. Windchill Dew Point Humidity Pressure Visibility Wind Dir Wind Speed Gust Speed Precip Events Conditions
12:15 AM 21.2 °F 13.6 °F 17.6 °F 86% 30.39 in 10.0 mi West 5.8 mph - N/A   Clear
12:35 AM 21.2 °F 13.6 °F 17.6 °F 86% 30.39 in 10.0 mi West 5.8 mph - N/A   Clear
12:55 AM 21.2 °F 14.9 °F 15.8 °F 80% 30.39 in 10.0 mi WNW 4.6 mph - N/A   Clear
1:15 AM 21.2 °F 12.6 °F 15.8 °F 80% 30.40 in 10.0 mi West 6.9 mph - N/A   Clear
1:35 AM 21.2 °F 12.6 °F 17.6 °F 86% 30.40 in 10.0 mi West 6.9 mph - N/A   Clear
1:55 AM 21.2 °F 13.6 °F 17.6 °F 86% 30.41 in 10.0 mi WNW 5.8 mph - N/A   Clear
2:15 AM 19.4 °F 11.5 °F 15.8 °F 86% 30.42 in 10.0 mi WNW 5.8 mph - N/A   Clear
2:35 AM 19.4 °F 11.5 °F 15.8 °F 86% 30.42 in 10.0 mi West 5.8 mph - N/A   Clear
2:55 AM 19.4 °F - 15.8 °F 86% 30.42 in 10.0 mi Calm Calm - N/A   Clear
3:35 AM 21.2 °F 16.4 °F 17.6 °F 86% 30.43 in 10.0 mi WSW 3.5 mph - N/A   Clear
3:55 AM 21.2 °F - 17.6 °F 86% 30.43 in 10.0 mi Calm Calm - N/A   Clear
4:15 AM 21.2 °F 16.4 °F 17.6 °F 86% 30.44 in 10.0 mi WSW 3.5 mph - N/A   Clear
4:35 AM 21.2 °F 14.9 °F 15.8 °F 80% 30.45 in 10.0 mi WSW 4.6 mph - N/A   Clear
4:55 AM 19.4 °F - 17.6 °F 93% 30.45 in 10.0 mi Calm Calm - N/A   Clear
5:15 AM 21.2 °F 16.4 °F 17.6 °F 86% 30.45 in 10.0 mi West 3.5 mph - N/A   Clear
5:35 AM 19.4 °F 14.3 °F 15.8 °F 86% 30.46 in 10.0 mi West 3.5 mph - N/A   Clear
5:55 AM 19.4 °F - 17.6 °F 93% 30.46 in 10.0 mi Calm Calm - N/A   Clear
6:15 AM 19.4 °F - 15.8 °F 86% 30.47 in 10.0 mi Calm Calm - N/A   Clear
6:35 AM 19.4 °F 14.3 °F 15.8 °F 86% 30.49 in 10.0 mi West 3.5 mph - N/A   Clear
6:55 AM 19.4 °F 14.3 °F 15.8 °F 86% 30.50 in 10.0 mi WSW 3.5 mph - N/A   Clear
7:15 AM 19.4 °F 11.5 °F 14.0 °F 80% 30.51 in 10.0 mi WSW 5.8 mph - N/A   Clear
7:35 AM 21.2 °F 12.6 °F 17.6 °F 86% 30.51 in 10.0 mi West 6.9 mph - N/A   Clear
7:55 AM 23.0 °F 15.8 °F 19.4 °F 86% 30.51 in 10.0 mi West 5.8 mph - N/A   Clear
8:15 AM 24.8 °F 19.1 °F 19.4 °F 80% 30.51 in 10.0 mi West 4.6 mph - N/A   Clear
8:35 AM 24.8 °F 20.5 °F 19.4 °F 80% 30.52 in 10.0 mi West 3.5 mph - N/A   Clear
8:55 AM 26.6 °F - 19.4 °F 74% 30.52 in 10.0 mi Calm Calm - N/A   Clear
9:15 AM 28.4 °F - 19.4 °F 69% 30.51 in 10.0 mi Calm Calm - N/A   Clear
9:35 AM 28.4 °F - 19.4 °F 69% 30.52 in 10.0 mi Calm Calm - N/A   Clear
9:55 AM 30.2 °F 25.4 °F 21.2 °F 69% 30.52 in 10.0 mi WSW 4.6 mph - N/A   Clear
10:15 AM 32.0 °F 26.4 °F 19.4 °F 60% 30.52 in 10.0 mi SW 5.8 mph - N/A   Clear
10:35 AM 33.8 °F 28.6 °F 21.2 °F 60% 30.52 in 10.0 mi SSW 5.8 mph - N/A   Clear
10:55 AM 33.8 °F 29.6 °F 19.4 °F 56% 30.51 in 10.0 mi SSW 4.6 mph - N/A   Clear
11:15 AM 35.6 °F 31.7 °F 19.4 °F 52% 30.50 in 10.0 mi South 4.6 mph - N/A   Clear
11:35 AM 35.6 °F - 19.4 °F 52% 30.49 in 10.0 mi Calm Calm - N/A   Clear
11:55 AM 37.4 °F 32.1 °F 19.4 °F 48% 30.49 in 10.0 mi WSW 6.9 mph - N/A   Clear
12:15 PM 37.4 °F 32.1 °F 17.6 °F 45% 30.48 in 10.0 mi WSW 6.9 mph - N/A   Clear
12:55 PM 39.2 °F 35.9 °F 17.6 °F 42% 30.47 in 10.0 mi SSW 4.6 mph - N/A   Clear
1:15 PM 39.2 °F 34.2 °F 19.4 °F 45% 30.47 in 10.0 mi SSW 6.9 mph - N/A   Clear
1:35 PM 39.2 °F 37.0 °F 17.6 °F 42% 30.46 in 10.0 mi SW 3.5 mph - N/A   Clear
1:55 PM 39.2 °F 35.9 °F 17.6 °F 42% 30.46 in 10.0 mi SW 4.6 mph - N/A   Clear
2:15 PM 41.0 °F 36.4 °F 17.6 °F 39% 30.46 in 10.0 mi WSW 6.9 mph - N/A   Clear
2:35 PM 41.0 °F 35.2 °F 17.6 °F 39% 30.46 in 10.0 mi WSW 9.2 mph - N/A   Clear
2:55 PM 42.8 °F 40.1 °F 19.4 °F 39% 30.46 in 10.0 mi SW 4.6 mph - N/A   Clear
3:15 PM 41.0 °F 38.0 °F 17.6 °F 39% 30.46 in 10.0 mi SSW 4.6 mph - N/A   Clear
3:35 PM 41.0 °F 36.4 °F 17.6 °F 39% 30.45 in 10.0 mi SSW 6.9 mph - N/A   Clear
3:55 PM 39.2 °F 35.9 °F 17.6 °F 42% 30.45 in 10.0 mi South 4.6 mph - N/A   Clear
4:15 PM 37.4 °F 33.8 °F 19.4 °F 48% 30.45 in 10.0 mi South 4.6 mph - N/A   Clear
4:35 PM 37.4 °F 33.8 °F 19.4 °F 48% 30.45 in 10.0 mi South 4.6 mph - N/A   Clear
4:55 PM 35.6 °F 31.7 °F 19.4 °F 52% 30.45 in 10.0 mi SSE 4.6 mph - N/A   Clear
5:15 PM 35.6 °F 31.7 °F 19.4 °F 52% 30.44 in 10.0 mi SSE 4.6 mph - N/A   Clear
5:35 PM 33.8 °F 28.6 °F 19.4 °F 56% 30.45 in 10.0 mi SE 5.8 mph - N/A   Clear
5:55 PM 32.0 °F 25.6 °F 21.2 °F 64% 30.45 in 10.0 mi SE 6.9 mph - N/A   Clear
6:15 PM 33.8 °F 27.0 °F 21.2 °F 60% 30.45 in 10.0 mi SE 8.1 mph - N/A   Clear
6:35 PM 33.8 °F 27.0 °F 21.2 °F 60% 30.45 in 10.0 mi SE 8.1 mph - N/A   Clear
6:55 PM 32.0 °F 25.6 °F 19.4 °F 60% 30.45 in 10.0 mi SSE 6.9 mph - N/A   Clear
7:15 PM 30.2 °F 23.4 °F 19.4 °F 64% 30.45 in 10.0 mi SSE 6.9 mph - N/A   Clear
7:35 PM 30.2 °F 22.6 °F 21.2 °F 69% 30.45 in 10.0 mi SSE 8.1 mph - N/A   Clear
7:55 PM 30.2 °F 23.4 °F 21.2 °F 69% 30.46 in 10.0 mi SSE 6.9 mph - N/A   Clear
8:15 PM 30.2 °F 21.9 °F 21.2 °F 69% 30.46 in 10.0 mi SSE 9.2 mph - N/A   Clear
8:35 PM 30.2 °F 23.4 °F 19.4 °F 64% 30.47 in 10.0 mi SSE 6.9 mph - N/A   Clear
8:55 PM 30.2 °F 22.6 °F 21.2 °F 69% 30.47 in 10.0 mi SSE 8.1 mph - N/A   Clear
9:15 PM 32.0 °F 25.6 °F 21.2 °F 64% 30.48 in 10.0 mi SSE 6.9 mph - N/A   Clear
9:35 PM 32.0 °F 25.6 °F 21.2 °F 64% 30.48 in 10.0 mi SSE 6.9 mph - N/A   Mostly Cloudy
9:55 PM 30.2 °F 22.6 °F 19.4 °F 64% 30.48 in 10.0 mi SSE 8.1 mph - N/A   Scattered Clouds
10:15 PM 30.2 °F 22.6 °F 21.2 °F 69% 30.48 in 10.0 mi SSE 8.1 mph - N/A   Clear
10:35 PM 30.2 °F 22.6 °F 21.2 °F 69% 30.47 in 10.0 mi SSE 8.1 mph - N/A   Clear
10:55 PM 30.2 °F 22.6 °F 21.2 °F 69% 30.47 in 10.0 mi SSE 8.1 mph - N/A   Clear
11:15 PM 32.0 °F 24.8 °F 21.2 °F 64% 30.47 in 10.0 mi SSE 8.1 mph - N/A   Clear
11:35 PM 32.0 °F 25.6 °F 21.2 °F 64% 30.47 in 10.0 mi SSE 6.9 mph - N/A   Clear
11:55 PM 30.2 °F 22.6 °F 21.2 °F 69% 30.47 in 10.0 mi SSE 8.1 mph - N/A   Clear